Delta Pioneer — SYIO — position and weather

sailwx.info

Track history (hours):
 
Tides and Currents Weather Stations Pressure Air Temp Water Temp Dewpoint Dewpoint Depression Visibility Wind Speed Wind Dir Waves Ship Positions

Delta Pioneer

Last reported at 2014-Jul-31 06:25 UTC. Time now 2014-Aug-01 22:39 UTC.
Position N 59°42' E 028°24'.

Length 249 m; draft 8 m.

Type: Tanker. MMSI: 240244000.

Date/timePositionNaut miles runAvg speedWind from/ knotsBaromVisibWave heightAir tempDewpointWater temp
2014-Jul-31 06:25N 59°42' E 028°24'10 9.1
2014-Jul-31 05:21N 59°51' E 028°27'810.1
2014-Jul-31 04:32N 59°59' E 028°35'29 8.5
2014-Jul-31 01:09N 60°09' E 027°41'1110.3
2014-Jul-31 00:05N 60°04' E 027°22'610.4
2014-Jul-30 23:33N 60°01' E 027°13'1010.1
2014-Jul-30 22:33N 59°59' E 026°53'1010.4
2014-Jul-30 21:33N 59°59' E 026°33'1010.5
2014-Jul-30 20:33N 59°56' E 026°13'1210.5
2014-Jul-30 19:24N 59°53' E 025°49'1010.4
2014-Jul-30 18:29N 59°51' E 025°31'1210.5
2014-Jul-30 17:21N 59°48' E 025°08'1310.4
2014-Jul-30 16:07N 59°45' E 024°43'2710.4
2014-Jul-30 13:33N 59°38' E 023°51'9110.1
2014-Jul-30 04:33N 58°48' E 021°24'1010.4
2014-Jul-30 03:33N 58°40' E 021°13'1110.6
2014-Jul-30 02:33N 58°31' E 021°01'1010.5
2014-Jul-30 01:33N 58°22' E 020°50'3310.4
2014-Jul-29 22:22N 57°54' E 020°17'910.7
2014-Jul-29 21:33N 57°46' E 020°10'1010.1
2014-Jul-29 20:33N 57°37' E 020°02'1110.5
2014-Jul-29 19:33N 57°27' E 019°54'1110.6
2014-Jul-29 18:33N 57°18' E 019°46'1110.5
2014-Jul-29 17:28N 57°07' E 019°37'1410.5
2014-Jul-29 16:08N 56°55' E 019°25'710.5
2014-Jul-29 15:26N 56°49' E 019°18'1010.5
2014-Jul-29 14:27N 56°39' E 019°09'2010.4
2014-Jul-29 12:33N 56°22' E 018°53'1010.0
2014-Jul-29 11:33N 56°15' E 018°40'1010.4
2014-Jul-29 10:33N 56°10' E 018°24'1010.4
2014-Jul-29 09:33N 56°04' E 018°08'1110.5
2014-Jul-29 08:33N 55°59' E 017°52'1010.4
2014-Jul-29 07:33N 55°54' E 017°36'1110.7
2014-Jul-29 06:33N 55°51' E 017°17'1110.6
2014-Jul-29 05:33N 55°49' E 016°59'1110.5
2014-Jul-29 04:33N 55°46' E 016°41'1010.4
2014-Jul-29 03:33N 55°44' E 016°23'1010.5
2014-Jul-29 02:33N 55°41' E 016°05'1010.4
2014-Jul-29 01:33N 55°39' E 015°47'1010.3
2014-Jul-29 00:33N 55°36' E 015°29'1010.4
2014-Jul-28 23:33N 55°32' E 015°12'1010.4
2014-Jul-28 22:33N 55°28' E 014°55'1010.3
2014-Jul-28 21:33N 55°23' E 014°39'1010.4
2014-Jul-28 20:33N 55°15' E 014°28'9 9.5
2014-Jul-28 19:33N 55°10' E 014°14'1010.4
2014-Jul-28 18:33N 55°11' E 013°55'1010.2
2014-Jul-28 17:33N 55°12' E 013°38'1110.6
2014-Jul-28 16:33N 55°13' E 013°19'1110.5
2014-Jul-28 15:33N 55°13' E 013°01'1110.6
2014-Jul-28 14:33N 55°16' E 012°43'9 8.9
2014-Jul-28 13:33N 55°25' E 012°40'8 8.4
2014-Jul-28 12:33N 55°33' E 012°47'9 8.9
2014-Jul-28 11:33N 55°40' E 012°56'1312.9
2014-Jul-28 10:34N 55°51' E 012°45'1212.4
2014-Jul-28 09:33N 56°03' E 012°39'9 9.5
2014-Jul-28 08:34N 56°09' E 012°26'9 9.1
2014-Jul-28 07:34N 56°14' E 012°12'9 9.4
2014-Jul-28 06:34N 56°22' E 012°02'1010.2
2014-Jul-28 05:33N 56°32' E 011°58'1110.5
2014-Jul-28 04:33N 56°42' E 011°54'1010.4
2014-Jul-28 03:33N 56°52' E 011°48'1010.3
2014-Jul-28 02:33N 57°02' E 011°41'1110.5
2014-Jul-28 01:31N 57°12' E 011°35'1010.4
2014-Jul-28 00:33N 57°21' E 011°28'1010.1
2014-Jul-27 23:33N 57°30' E 011°19'1010.3
2014-Jul-27 22:33N 57°37' E 011°05'1010.4
2014-Jul-27 21:33N 57°44' E 010°51'10 9.9
2014-Jul-27 20:33N 57°48' E 010°33'1110.6
2014-Jul-27 19:33N 57°46' E 010°14'26710.2
2014-Jul-26 17:25N 54°19' E 005°12'910.8
2014-Jul-26 16:33N 54°13' E 005°01'1110.5
2014-Jul-26 15:31N 54°04' E 004°49'1010.6
2014-Jul-26 14:33N 53°57' E 004°38'6610.2
2014-Jul-26 08:05N 53°05' E 003°28'610.8
2014-Jul-26 07:29N 52°59' E 003°23'3210.1
2014-Jul-26 04:21N 52°29' E 003°09'910.4
2014-Jul-26 03:28N 52°20' E 003°08'4010.0
2014-Jul-25 23:25N 51°45' E 002°34'910.7
2014-Jul-25 22:33N 51°38' E 002°25'1210.7
2014-Jul-25 21:27N 51°29' E 002°12'910.0
2014-Jul-25 20:33N 51°21' E 002°06'10 9.5
2014-Jul-25 19:33N 51°12' E 001°60'1110.5
2014-Jul-25 18:34N 51°07' E 001°45'1010.0
2014-Jul-25 17:33N 51°01' E 001°33'10 9.7
2014-Jul-25 16:33N 50°53' E 001°25'1010.4
2014-Jul-25 15:34N 50°43' E 001°21'1510.2
2014-Jul-25 14:04N 50°32' E 001°03'1010.2
2014-Jul-25 13:07N 50°29' E 000°50'610.4
2014-Jul-25 12:33N 50°27' E 000°40'1010.5
2014-Jul-25 11:34N 50°24' E 000°25'9610.6
2014-Jul-25 02:30N 49°59' W 001°60'1010.5
2014-Jul-25 01:32N 49°56' W 002°15'1010.4
2014-Jul-25 00:33N 49°53' W 002°30'1010.2
2014-Jul-24 23:31N 49°50' W 002°46'1110.4
2014-Jul-24 22:29N 49°47' W 003°02'140 9.2
2014-Jul-24 07:13N 48°10' W 005°36'910.4
2014-Jul-24 06:21N 48°02' W 005°30'1110.6
2014-Jul-24 05:20N 47°53' W 005°22'810.2
2014-Jul-24 04:33N 47°45' W 005°17'1010.3
2014-Jul-24 03:34N 47°41' W 005°03'1010.4
2014-Jul-24 02:33N 47°37' W 004°48'1110.5
2014-Jul-24 01:34N 47°33' W 004°34'3310.4
2014-Jul-23 22:24N 47°21' W 003°49'1010.3
2014-Jul-23 21:24N 47°16' W 003°36'910.6
2014-Jul-23 20:34N 47°12' W 003°24'1010.4
2014-Jul-23 19:33N 47°08' W 003°10'1110.4
2014-Jul-23 18:32N 47°04' W 002°55'19 0.5
2014-Jul-22 05:32N 47°06' W 002°28'0 0.0
2014-Jul-22 02:29N 47°06' W 002°28'0 0.0
2014-Jul-21 17:32N 47°05' W 002°28'0 0.1
2014-Jul-21 16:23N 47°06' W 002°28'  
Track history (hours):
 
Tides and Currents Weather Stations Pressure Air Temp Water Temp Dewpoint Dewpoint Depression Visibility Wind Speed Wind Dir Waves Ship Positions

Delta Pioneer

Last reported at 2014-Jul-31 06:25 UTC. Time now 2014-Aug-01 22:39 UTC.
Position N 59°42' E 028°24'.

Length 249 m; draft 8 m.

Type: Tanker. MMSI: 240244000.

Date/timePositionNaut miles runAvg speedWind from/ knotsBaromVisibWave heightAir tempDewpointWater temp
2014-Jul-31 06:25N 59°42' E 028°24'10 9.1
2014-Jul-31 05:21N 59°51' E 028°27'810.1
2014-Jul-31 04:32N 59°59' E 028°35'29 8.5
2014-Jul-31 01:09N 60°09' E 027°41'1110.3
2014-Jul-31 00:05N 60°04' E 027°22'610.4
2014-Jul-30 23:33N 60°01' E 027°13'1010.1
2014-Jul-30 22:33N 59°59' E 026°53'1010.4
2014-Jul-30 21:33N 59°59' E 026°33'1010.5
2014-Jul-30 20:33N 59°56' E 026°13'1210.5
2014-Jul-30 19:24N 59°53' E 025°49'1010.4
2014-Jul-30 18:29N 59°51' E 025°31'1210.5
2014-Jul-30 17:21N 59°48' E 025°08'1310.4
2014-Jul-30 16:07N 59°45' E 024°43'2710.4
2014-Jul-30 13:33N 59°38' E 023°51'9110.1
2014-Jul-30 04:33N 58°48' E 021°24'1010.4
2014-Jul-30 03:33N 58°40' E 021°13'1110.6
2014-Jul-30 02:33N 58°31' E 021°01'1010.5
2014-Jul-30 01:33N 58°22' E 020°50'3310.4
2014-Jul-29 22:22N 57°54' E 020°17'910.7
2014-Jul-29 21:33N 57°46' E 020°10'1010.1
2014-Jul-29 20:33N 57°37' E 020°02'1110.5
2014-Jul-29 19:33N 57°27' E 019°54'1110.6
2014-Jul-29 18:33N 57°18' E 019°46'1110.5
2014-Jul-29 17:28N 57°07' E 019°37'1410.5
2014-Jul-29 16:08N 56°55' E 019°25'710.5
2014-Jul-29 15:26N 56°49' E 019°18'1010.5
2014-Jul-29 14:27N 56°39' E 019°09'2010.4
2014-Jul-29 12:33N 56°22' E 018°53'1010.0
2014-Jul-29 11:33N 56°15' E 018°40'1010.4
2014-Jul-29 10:33N 56°10' E 018°24'1010.4
2014-Jul-29 09:33N 56°04' E 018°08'1110.5
2014-Jul-29 08:33N 55°59' E 017°52'1010.4
2014-Jul-29 07:33N 55°54' E 017°36'1110.7
2014-Jul-29 06:33N 55°51' E 017°17'1110.6
2014-Jul-29 05:33N 55°49' E 016°59'1110.5
2014-Jul-29 04:33N 55°46' E 016°41'1010.4
2014-Jul-29 03:33N 55°44' E 016°23'1010.5
2014-Jul-29 02:33N 55°41' E 016°05'1010.4
2014-Jul-29 01:33N 55°39' E 015°47'1010.3
2014-Jul-29 00:33N 55°36' E 015°29'1010.4
2014-Jul-28 23:33N 55°32' E 015°12'1010.4
2014-Jul-28 22:33N 55°28' E 014°55'1010.3
2014-Jul-28 21:33N 55°23' E 014°39'1010.4
2014-Jul-28 20:33N 55°15' E 014°28'9 9.5
2014-Jul-28 19:33N 55°10' E 014°14'1010.4
2014-Jul-28 18:33N 55°11' E 013°55'1010.2
2014-Jul-28 17:33N 55°12' E 013°38'1110.6
2014-Jul-28 16:33N 55°13' E 013°19'1110.5
2014-Jul-28 15:33N 55°13' E 013°01'1110.6
2014-Jul-28 14:33N 55°16' E 012°43'9 8.9
2014-Jul-28 13:33N 55°25' E 012°40'8 8.4
2014-Jul-28 12:33N 55°33' E 012°47'9 8.9
2014-Jul-28 11:33N 55°40' E 012°56'1312.9
2014-Jul-28 10:34N 55°51' E 012°45'1212.4
2014-Jul-28 09:33N 56°03' E 012°39'9 9.5
2014-Jul-28 08:34N 56°09' E 012°26'9 9.1
2014-Jul-28 07:34N 56°14' E 012°12'9 9.4
2014-Jul-28 06:34N 56°22' E 012°02'1010.2
2014-Jul-28 05:33N 56°32' E 011°58'1110.5
2014-Jul-28 04:33N 56°42' E 011°54'1010.4
2014-Jul-28 03:33N 56°52' E 011°48'1010.3
2014-Jul-28 02:33N 57°02' E 011°41'1110.5
2014-Jul-28 01:31N 57°12' E 011°35'1010.4
2014-Jul-28 00:33N 57°21' E 011°28'1010.1
2014-Jul-27 23:33N 57°30' E 011°19'1010.3
2014-Jul-27 22:33N 57°37' E 011°05'1010.4
2014-Jul-27 21:33N 57°44' E 010°51'10 9.9
2014-Jul-27 20:33N 57°48' E 010°33'1110.6
2014-Jul-27 19:33N 57°46' E 010°14'26710.2
2014-Jul-26 17:25N 54°19' E 005°12'910.8
2014-Jul-26 16:33N 54°13' E 005°01'1110.5
2014-Jul-26 15:31N 54°04' E 004°49'1010.6
2014-Jul-26 14:33N 53°57' E 004°38'6610.2
2014-Jul-26 08:05N 53°05' E 003°28'610.8
2014-Jul-26 07:29N 52°59' E 003°23'3210.1
2014-Jul-26 04:21N 52°29' E 003°09'910.4
2014-Jul-26 03:28N 52°20' E 003°08'4010.0
2014-Jul-25 23:25N 51°45' E 002°34'910.7
2014-Jul-25 22:33N 51°38' E 002°25'1210.7
2014-Jul-25 21:27N 51°29' E 002°12'910.0
2014-Jul-25 20:33N 51°21' E 002°06'10 9.5
2014-Jul-25 19:33N 51°12' E 001°60'1110.5
2014-Jul-25 18:34N 51°07' E 001°45'1010.0
2014-Jul-25 17:33N 51°01' E 001°33'10 9.7
2014-Jul-25 16:33N 50°53' E 001°25'1010.4
2014-Jul-25 15:34N 50°43' E 001°21'1510.2
2014-Jul-25 14:04N 50°32' E 001°03'1010.2
2014-Jul-25 13:07N 50°29' E 000°50'610.4
2014-Jul-25 12:33N 50°27' E 000°40'1010.5
2014-Jul-25 11:34N 50°24' E 000°25'9610.6
2014-Jul-25 02:30N 49°59' W 001°60'1010.5
2014-Jul-25 01:32N 49°56' W 002°15'1010.4
2014-Jul-25 00:33N 49°53' W 002°30'1010.2
2014-Jul-24 23:31N 49°50' W 002°46'1110.4
2014-Jul-24 22:29N 49°47' W 003°02'140 9.2
2014-Jul-24 07:13N 48°10' W 005°36'910.4
2014-Jul-24 06:21N 48°02' W 005°30'1110.6
2014-Jul-24 05:20N 47°53' W 005°22'810.2
2014-Jul-24 04:33N 47°45' W 005°17'1010.3
2014-Jul-24 03:34N 47°41' W 005°03'1010.4
2014-Jul-24 02:33N 47°37' W 004°48'1110.5
2014-Jul-24 01:34N 47°33' W 004°34'3310.4
2014-Jul-23 22:24N 47°21' W 003°49'1010.3
2014-Jul-23 21:24N 47°16' W 003°36'910.6
2014-Jul-23 20:34N 47°12' W 003°24'1010.4
2014-Jul-23 19:33N 47°08' W 003°10'1110.4
2014-Jul-23 18:32N 47°04' W 002°55'19 0.5
2014-Jul-22 05:32N 47°06' W 002°28'0 0.0
2014-Jul-22 02:29N 47°06' W 002°28'0 0.0
2014-Jul-21 17:32N 47°05' W 002°28'0 0.1
2014-Jul-21 16:23N 47°06' W 002°28'  

Dump ship's entire track history